Weather History for KPOF - May, 2013

Change the Weather History Date:

Friday, May 17, 2013

  Actual Average Record
Temperature  
Mean Temperature 68 °F -  
Max Temperature 73 °F 80 °F 95 °F (1944)
Min Temperature 64 °F 56 °F 40 °F (1929)
Cooling Degree Days 4    
Growing Degree Days 18 (Base 50)    
Moisture  
Dew Point 65 °F    
Average Humidity 88    
Maximum Humidity 94    
Minimum Humidity 76    
Precipitation  
Precipitation 1.15 in - - ()
Sea Level Pressure  
Sea Level Pressure 29.92 in    
Wind  
Wind Speed 3 mph (East)    
Max Wind Speed 8 mph    
Max Gust Speed -    
Visibility 5 miles    
Events Rain    
Averages and records for this station are not official NWS values.
T = Trace of Precipitation, MM = Missing Value Source: NWS Daily Summary

Daily Weather History Graph

Daily Weather History Graph

Search for Another Location

Airport or City:

Trip Planner

Search our weather history database for the weather conditions in past years. The results will help you decide how hot, cold, wet, or windy it might be!

Date:

Astronomy

May. 17, 2013 Rise Set
Actual Time 5:52 AM CDT 8:03 PM CDT
Civil Twilight 5:22 AM CDT 8:33 PM CDT
Nautical Twilight 4:47 AM CDT 9:08 PM CDT
Astronomical Twilight 4:08 AM CDT 9:47 PM CDT
Moon 12:20 PM CDT (5/17) 1:00 AM CDT (5/17)
Length of Visible Light 15h 10m
Length of Day
14h 11m
Waxing Crescent, 45% of the Moon is Illuminated
May 17
Waxing Crescent
May 17
First Quarter
May 24
Full
May 31
Last Quarter
Jun 8
New

Hourly Weather History & Observations

Time (CDT) Temp. Dew Point Humidity Pressure Visibility Wind Dir Wind Speed Gust Speed Precip Events Conditions
1:53 AM 66.0 °F 63.0 °F 90% 29.92 in 8.0 mi Calm Calm - 0.04 in Rain Light Rain
2:53 AM 66.0 °F 63.0 °F 90% 29.91 in 4.0 mi Calm Calm - 0.08 in Rain Rain
3:21 AM 64.4 °F 62.6 °F 94% 29.91 in 2.0 mi Calm Calm - 0.09 in Rain Heavy Rain
3:28 AM 64.4 °F 62.6 °F 94% 29.91 in 1.5 mi Calm Calm - 0.15 in Rain Heavy Rain
3:53 AM 64.9 °F 63.0 °F 93% 29.91 in 1.5 mi East 5.8 mph - 0.44 in Rain Heavy Rain
4:10 AM 64.4 °F 62.6 °F 94% 29.91 in 1.5 mi ENE 6.9 mph - 0.23 in Rain Rain
4:17 AM 64.4 °F 62.6 °F 94% 29.91 in 2.5 mi NE 8.1 mph - 0.29 in Rain Rain
4:20 AM 64.4 °F 62.6 °F 94% 29.91 in 3.0 mi ENE 6.9 mph - 0.30 in Rain Rain
4:53 AM 64.9 °F 63.0 °F 93% 29.90 in 6.0 mi ENE 5.8 mph - 0.30 in   Overcast
5:10 AM 64.4 °F 62.6 °F 94% 29.91 in 6.0 mi ENE 6.9 mph - N/A   Overcast
5:53 AM 64.9 °F 63.0 °F 93% 29.90 in 5.0 mi ENE 5.8 mph - N/A   Overcast
6:24 AM 66.2 °F 62.6 °F 88% 29.92 in 4.0 mi ENE 3.5 mph - N/A   Overcast
6:57 AM 66.2 °F 62.6 °F 88% 29.92 in 1.5 mi ENE 4.6 mph - 0.01 in Rain Rain
7:18 AM 66.2 °F 64.4 °F 94% 29.92 in 3.0 mi ENE 4.6 mph - 0.05 in Rain Light Rain
7:43 AM 66.2 °F 64.4 °F 94% 29.92 in 3.0 mi East 5.8 mph - 0.05 in   Overcast
7:53 AM 66.9 °F 64.0 °F 90% 29.92 in 5.0 mi East 5.8 mph - 0.05 in   Overcast
8:03 AM 66.2 °F 64.4 °F 94% 29.93 in 5.0 mi East 5.8 mph - N/A   Overcast
8:53 AM 66.9 °F 64.0 °F 90% 29.93 in 3.0 mi East 4.6 mph - N/A   Overcast
9:05 AM 66.2 °F 64.4 °F 94% 29.94 in 2.5 mi East 4.6 mph - N/A   Overcast
9:30 AM 66.2 °F 64.4 °F 94% 29.94 in 1.8 mi East 4.6 mph - N/A   Overcast
9:53 AM 66.9 °F 64.9 °F 93% 29.93 in 1.5 mi ESE 5.8 mph - 0.00 in Rain Light Rain
10:21 AM 68.0 °F 64.4 °F 88% 29.93 in 3.0 mi East 4.6 mph - 0.00 in   Overcast
10:53 AM 70.0 °F 66.0 °F 87% 29.93 in 5.0 mi East 8.1 mph - 0.00 in   Overcast
11:32 AM 69.8 °F 66.2 °F 88% 29.94 in 6.0 mi East 5.8 mph - N/A   Overcast
11:53 AM 70.0 °F 66.0 °F 87% 29.93 in 5.0 mi ESE 5.8 mph - 0.00 in Rain Light Rain
12:15 PM 71.6 °F 66.2 °F 83% 29.93 in 7.0 mi Variable 4.6 mph - 0.00 in   Overcast
12:53 PM 72.0 °F 66.0 °F 81% 29.92 in 9.0 mi ESE 5.8 mph - 0.00 in   Overcast
1:28 PM 73.4 °F 66.2 °F 78% 29.93 in 10.0 mi ESE 5.8 mph - N/A   Overcast
1:41 PM 73.4 °F 66.2 °F 78% 29.92 in 9.0 mi ENE 3.5 mph - N/A   Overcast
2:04 PM 71.6 °F 66.2 °F 83% 29.92 in 5.0 mi Variable 3.5 mph - 0.01 in Rain Light Rain
2:21 PM 71.6 °F 66.2 °F 83% 29.92 in 8.0 mi ENE 3.5 mph - 0.01 in   Overcast
2:53 PM 73.0 °F 66.9 °F 81% 29.91 in 10.0 mi NNW 3.5 mph - 0.01 in   Overcast
3:07 PM 71.6 °F 66.2 °F 83% 29.92 in 10.0 mi ESE 6.9 mph - 0.00 in Rain Light Rain
3:26 PM 71.6 °F 66.2 °F 83% 29.92 in 2.5 mi Calm Calm - 0.05 in Rain Rain
3:33 PM 69.8 °F 66.2 °F 88% 29.92 in 1.5 mi Calm Calm - 0.08 in Rain Rain
3:53 PM 71.1 °F 66.9 °F 87% 29.91 in 1.8 mi Calm Calm - 0.21 in Rain Rain
4:02 PM 71.6 °F 68.0 °F 88% 29.91 in 2.5 mi Calm Calm - 0.01 in Rain Light Rain
4:07 PM 71.6 °F 68.0 °F 88% 29.91 in 3.0 mi Calm Calm - 0.02 in Rain Light Rain
4:29 PM 73.4 °F 68.0 °F 83% 29.90 in 9.0 mi Variable 3.5 mph - 0.02 in   Overcast
4:53 PM 73.0 °F 66.9 °F 81% 29.90 in 10.0 mi Variable 3.5 mph - 0.02 in   Mostly Cloudy
5:53 PM 73.9 °F 66.0 °F 76% 29.89 in 10.0 mi Calm Calm - N/A   Overcast
6:53 PM 73.0 °F 66.0 °F 79% 29.90 in 10.0 mi Calm Calm - N/A   Mostly Cloudy
7:53 PM 72.0 °F 68.0 °F 87% 29.91 in 10.0 mi Calm Calm - N/A   Partly Cloudy
8:53 PM 70.0 °F 66.9 °F 90% 29.92 in 10.0 mi ENE 3.5 mph - N/A   Clear
9:53 PM 69.1 °F 66.0 °F 90% 29.94 in 4.0 mi Calm Calm - N/A   Clear
10:53 PM 68.0 °F 64.9 °F 90% 29.95 in 6.0 mi Calm Calm - N/A   Clear
11:11 PM 66.2 °F 64.4 °F 94% 29.96 in 5.0 mi Calm Calm - N/A   Partly Cloudy
11:39 PM 66.2 °F 64.4 °F 94% 29.96 in 2.5 mi Calm Calm - N/A   Partly Cloudy
11:51 PM 66.2 °F 64.4 °F 94% 29.96 in 2.5 mi Calm Calm - N/A   Mostly Cloudy
11:53 PM 66.9 °F 64.0 °F 90% 29.96 in 2.5 mi Calm Calm - N/A   Mostly Cloudy